KE9LZ-9 Weather Reports


Display with metric or nautical units.
time (UTC)temp
F
wind
direction
speed
MPH
gust
MPH
rain 1hr
in
rain 24hr
in
rain mn
in
humidity
%
barometer
mb
20260503200003 68 280 3.0 16.0 0.00 0.00 0.00 38 1001.3
20260503195003 68 285 5.0 15.0 0.00 0.00 0.00 38 1001.5
20260503194003 70 247 4.0 15.0 0.00 0.00 0.00 37 1001.8
20260503192004 69 246 4.0 18.0 0.00 0.00 0.00 37 1001.9
20260503191004 69 305 8.0 15.0 0.00 0.00 0.00 36 1002.1
20260503185004 70 270 6.0 18.0 0.00 0.00 0.00 37 1002.3
20260503184003 69 288 3.0 15.0 0.00 0.00 0.00 38 1002.4
20260503182005 67 273 8.0 22.0 0.00 0.00 0.00 38 1002.9
20260503181004 67 302 6.0 15.0 0.00 0.00 0.00 39 1002.8
20260503180004 67 295 7.0 17.0 0.00 0.00 0.00 40 1002.9
20260503175004 67 286 5.0 13.0 0.00 0.00 0.00 40 1003.2
20260503174004 67 224 5.0 10.0 0.00 0.00 0.00 39 1003.2
20260503173003 65 221 3.0 16.0 0.00 0.00 0.00 41 1003.4
20260503172004 66 288 6.0 14.0 0.00 0.00 0.00 41 1003.7
20260503171003 66 241 6.0 15.0 0.00 0.00 0.00 40 1003.9
20260503151004 56 241 4.0 16.0 0.00 0.00 0.00 56 1005.5
20260503131004 49 243 2.0 6.0 0.00 0.00 0.00 76 1006.9
20260503081003 43 332 2.0 3.0 0.00 0.00 0.00 68 1008.3
20260503055004 35 67 0.0 2.0 0.00 0.00 0.00 90 1009.7
20260503054003 34 343 1.0 2.0 0.00 0.00 0.00 90 1009.7
20260503053004 34 5 1.0 2.0 0.00 0.00 0.00 91 1010.0
20260503052004 34 0 1.0 1.0 0.00 0.00 0.00 90 1009.9
20260503051004 34 22 0.0 2.0 0.00 0.00 0.00 90 1010.0
20260503050004 34 29 1.0 2.0 0.00 0.00 0.00 89 1009.9
20260503045004 35 55 0.0 3.0 0.00 0.00 0.00 89 1010.2
20260503044004 35 155 0.0 2.0 0.00 0.00 0.00 88 1010.2
20260503043004 35 38 2.0 2.0 0.00 0.00 0.00 88 1010.5
20260503042004 36 358 1.0 5.0 0.00 0.00 0.00 87 1010.4
20260503041003 36 67 0.0 2.0 0.00 0.00 0.00 86 1010.4
20260503040003 37 53 2.0 3.0 0.00 0.00 0.00 85 1010.4
20260503035004 38 302 1.0 1.0 0.00 0.00 0.00 83 1010.5
20260503034004 38 357 0.0 1.0 0.00 0.00 0.00 83 1010.4
20260503033004 39 37 0.0 1.0 0.00 0.00 0.00 81 1010.7
20260503032005 40 52 0.0 2.0 0.00 0.00 0.00 79 1010.7
20260503030003 41 12 0.0 2.0 0.00 0.00 0.00 76 1010.9
20260503025003 42 63 1.0 2.0 0.00 0.00 0.00 75 1011.0
20260503023004 43 38 1.0 2.0 0.00 0.00 0.00 72 1011.1
20260503022003 43 92 1.0 3.0 0.00 0.00 0.00 71 1011.1
20260503021004 44 52 1.0 3.0 0.00 0.00 0.00 70 1011.3
20260503014004 46 10 1.0 5.0 0.00 0.00 0.00 66 1011.2
20260503013003 46 34 1.0 5.0 0.00 0.00 0.00 64 1011.2
20260503012004 47 85 3.0 6.0 0.00 0.00 0.00 63 1011.1
20260503011004 48 44 0.0 5.0 0.00 0.00 0.00 62 1011.3
20260503010003 49 42 2.0 5.0 0.00 0.00 0.00 58 1011.3
20260503005004 50 90 2.0 7.0 0.00 0.00 0.00 55 1011.2
20260503003004 53 38 2.0 5.0 0.00 0.00 0.00 46 1011.3
20260503002004 56 70 1.0 3.0 0.00 0.00 0.00 30 1011.0
20260503001003 57 318 2.0 7.0 0.00 0.00 0.00 28 1011.0
20260503000004 58 341 3.0 9.0 0.00 0.00 0.00 28 1011.2
20260502235004 59 325 5.0 7.0 0.00 0.00 0.00 27 1011.1
20260502234004 59 323 1.0 7.0 0.00 0.00 0.00 28 1011.1
20260502233004 59 287 2.0 6.0 0.00 0.00 0.00 27 1011.2
20260502232003 60 265 3.0 8.0 0.00 0.00 0.00 25 1011.3
20260502231004 61 351 3.0 9.0 0.00 0.00 0.00 26 1011.4
20260502224003 59 268 1.0 7.0 0.00 0.00 0.00 27 1011.7
20260502223004 58 0 2.0 8.0 0.00 0.00 0.00 28 1011.7
20260502222003 60 295 4.0 12.0 0.00 0.00 0.00 27 1011.8
20260502221004 59 264 5.0 12.0 0.00 0.00 0.00 27 1012.0
20260502215004 60 316 5.0 8.0 0.00 0.00 0.00 28 1011.9
20260502214003 58 262 1.0 7.0 0.00 0.00 0.00 30 1012.0
20260502212004 59 245 2.0 6.0 0.00 0.00 0.00 27 1012.1
20260502211004 57 13 1.0 6.0 0.00 0.00 0.00 29 1012.4
20260502210004 57 279 3.0 7.0 0.00 0.00 0.00 28 1012.6
20260502205004 57 303 5.0 10.0 0.00 0.00 0.00 29 1012.7
20260502204003 60 263 4.0 10.0 0.00 0.00 0.00 26 1012.8
20260502203003 58 320 6.0 13.0 0.00 0.00 0.00 29 1013.2
20260502202004 58 332 6.0 12.0 0.00 0.00 0.00 28 1013.1
20260502201004 57 301 4.0 13.0 0.00 0.00 0.00 29 1013.4